BEIDOU-3 IGSO-1 (C38)

Last updated on Aug. 8, 2020, 5:33 a.m. UTC

1 44204U 19023A   20220.47193698 -.00000202  00000-0  10000-3 0  9991
2 44204  55.5681  60.3503 0017550 178.8380   0.8367  1.00278884  4901
UTC
Height (km)
Latitude
Longitude
Inclination
Orbital Period
UTC large
Height (km)
Speed (km/s)
/
Latitude / Longitude
Inclination (degrees)
Orbital Period (minutes)
Azimuth
Elevation
Range (km)
Doppler Factor
iOS Compass Heading
iOS Angle

Next 30 passes for location: Hong Kong

Rise time Rise Azimuth (degrees) Set time Set Azimuth (degrees) Duration Max altitude (degrees)

No matching passes for this satellites